This is the latest recevied weather packets stored in our database for station/object KB0BS-13. If no packets are shown the sender has not sent any weather packets the latest 10 day(s).
| Time | Temp. | Humidity | Pressure | Rain* | Wind** | Luminosity | Snow |
|---|---|---|---|---|---|---|---|
| 1777598475 | 1.67° C | 85% | 1016.2 hPa | 0 mm | - | 0 W/m² | - |
| 1777598174 | 1.67° C | 85% | 1016.2 hPa | 0 mm | - | 0 W/m² | - |
| 1777597869 | 2.22° C | 85% | 1016 hPa | 0 mm | - | 0 W/m² | - |
| 1777597563 | 2.22° C | 83% | 1016.3 hPa | 0 mm | - | 0 W/m² | - |
| 1777597258 | 2.22° C | 83% | 1016 hPa | 0 mm | - | 0 W/m² | - |
| 1777596954 | 2.22° C | 84% | 1016 hPa | 0 mm | - | 1 W/m² | - |
| 1777596651 | 2.22° C | 83% | 1016.2 hPa | 0 mm | - | 2 W/m² | - |
| 1777596348 | 2.22° C | 84% | 1016 hPa | 0 mm | - | 2 W/m² | - |
| 1777596046 | 2.22° C | 83% | 1015.9 hPa | 0 mm | - | 3 W/m² | - |
| 1777595745 | 2.22° C | 83% | 1015.9 hPa | 0 mm | - | 4 W/m² | - |
| 1777595441 | 2.78° C | 84% | 1016.1 hPa | 0 mm | - | 6 W/m² | - |
| 1777595138 | 2.78° C | 83% | 1015.9 hPa | 0 mm | - | 8 W/m² | - |
| 1777594834 | 2.78° C | 83% | 1016.1 hPa | 0 mm | - | 11 W/m² | - |
| 1777594530 | 2.78° C | 85% | 1015.9 hPa | 0 mm | - | 15 W/m² | - |
| 1777594227 | 2.78° C | 83% | 1016 hPa | 0 mm | - | 17 W/m² | - |
| 1777593922 | 2.78° C | 84% | 1015.8 hPa | 0 mm | - | 20 W/m² | - |
| 1777593619 | 2.78° C | 84% | 1015.9 hPa | 0 mm | - | 23 W/m² | - |
| 1777593315 | 2.78° C | 83% | 1015.8 hPa | 0 mm | - | 25 W/m² | - |
| 1777593009 | 3.33° C | 81% | 1015.8 hPa | 0 mm | - | 33 W/m² | - |
| 1777592703 | 3.33° C | 82% | 1015.8 hPa | 0 mm | - | 36 W/m² | - |
| 1777592399 | 3.33° C | 80% | 1015.6 hPa | 0 mm | - | 42 W/m² | - |
| 1777592094 | 3.33° C | 80% | 1015.8 hPa | 0 mm | - | 54 W/m² | - |
| 1777591792 | 3.33° C | 82% | 1015.7 hPa | 0 mm | - | 35 W/m² | - |
| 1777591488 | 3.33° C | 81% | 1015.8 hPa | 0 mm | - | 29 W/m² | - |
| 1777591184 | 3.33° C | 80% | 1015.8 hPa | 0 mm | - | 31 W/m² | - |
* Rain latest hour (hover to see other rain measurements)
** Current wind speed in m/s (hover to see current wind gust speed)